Terug naar catalogus

BPA 1/SL-24 R/B

ActiefPO
NORAD 36600·ROCKET BODY·🇺🇦 Ukraine

Gelanceerd Jun 15, 2010 vanaf Dombarovsky

Loading…

Volgende Passages (komende 24 uur)

TLE

VersSource: Space-Track

Epoch: Sep 14, 2026, 07:11 UTC

1 36600U 10028C   26257.29952259 -.00000029  00000-0  47469-5 0  9998
2 36600  98.2462  99.0373 0374176   2.2333 171.5537 13.72799761814059

Volg BPA 1/SL-24 R/B in realtime met AllMySat

Download on the App Store